Goshen, IN

5:59 PM EDT on March 25, 2017 (GMT -0400)
Goshen Municipal

Weather History for KGSH - April, 2013

Change the Weather History Date:

Tuesday, April 30, 2013

  Actual Average Record
Temperature  
Mean Temperature 68 °F -  
Max Temperature 80 °F 65 °F 86 °F (1962)
Min Temperature 57 °F 44 °F 26 °F (2008)
Cooling Degree Days 3    
Growing Degree Days 18 (Base 50)    
Moisture  
Dew Point 54 °F    
Average Humidity 63    
Maximum Humidity 77    
Minimum Humidity 48    
Precipitation  
Precipitation 0.00 in - - ()
Sea Level Pressure  
Sea Level Pressure 29.94 in    
Wind  
Wind Speed 13 mph (SSE)    
Max Wind Speed 18 mph    
Max Gust Speed 28 mph    
Visibility 10 miles    
Events      
Averages and records for this station are not official NWS values.
T = Trace of Precipitation, MM = Missing Value Source: NWS Daily Summary

Daily Weather History Graph

Daily Weather History Graph

Search for Another Location

Airport or City:

Trip Planner

Search our weather history database for the weather conditions in past years. The results will help you decide how hot, cold, wet, or windy it might be!

Date:

Astronomy

Apr. 30, 2013 Rise Set
Actual Time 6:41 AM EDT 8:40 PM EDT
Civil Twilight 6:11 AM EDT 9:10 PM EDT
Nautical Twilight 5:34 AM EDT 9:47 PM EDT
Astronomical Twilight 4:54 AM EDT 10:27 PM EDT
Moon 1:03 AM EDT (4/30) 11:08 AM EDT (4/30)
Length of Visible Light 14h 59m
Length of Day
13h 59m
Waning Gibbous, 70% of the Moon is Illuminated
Apr 30
Waning Gibbous
May 2
Last Quarter
May 9
New
May 18
First Quarter
May 25
Full

Hourly Weather History & Observations

Time (EDT) Temp. Dew Point Humidity Pressure Visibility Wind Dir Wind Speed Gust Speed Precip Events Conditions
12:53 AM 60.1 °F 51.1 °F 72% 29.91 in 10.0 mi SSE 9.2 mph - N/A   Clear
1:53 AM 59.0 °F 51.1 °F 75% 29.91 in 10.0 mi South 9.2 mph - N/A   Clear
2:53 AM 59.0 °F 50.0 °F 72% 29.92 in 10.0 mi South 10.4 mph - N/A   Partly Cloudy
3:53 AM 57.9 °F 50.0 °F 75% 29.91 in 10.0 mi SSE 12.7 mph - N/A   Clear
4:53 AM 57.0 °F 50.0 °F 77% 29.91 in 10.0 mi South 10.4 mph - N/A   Clear
5:53 AM 57.0 °F 48.9 °F 74% 29.91 in 9.0 mi South 16.1 mph - N/A   Clear
6:53 AM 57.0 °F 48.9 °F 74% 29.91 in 9.0 mi South 13.8 mph - N/A   Clear
7:53 AM 59.0 °F 50.0 °F 72% 29.92 in 10.0 mi South 15.0 mph - N/A   Clear
8:53 AM 62.1 °F 50.0 °F 65% 29.94 in 10.0 mi South 15.0 mph 23.0 mph N/A   Clear
9:53 AM 64.0 °F 52.0 °F 65% 29.94 in 10.0 mi South 16.1 mph - N/A   Clear
10:53 AM 66.9 °F 53.1 °F 61% 29.94 in 10.0 mi South 16.1 mph - N/A   Scattered Clouds
11:53 AM 69.1 °F 54.0 °F 58% 29.95 in 10.0 mi South 13.8 mph - N/A   Clear
12:53 PM 72.0 °F 55.9 °F 57% 29.95 in 10.0 mi South 16.1 mph 23.0 mph N/A   Clear
1:53 PM 73.9 °F 55.9 °F 53% 29.94 in 10.0 mi South 15.0 mph - N/A   Clear
2:53 PM 75.9 °F 57.0 °F 52% 29.93 in 10.0 mi South 18.4 mph 27.6 mph N/A   Clear
3:53 PM 79.0 °F 57.9 °F 48% 29.92 in 10.0 mi SSE 18.4 mph 26.5 mph N/A   Clear
4:53 PM 79.0 °F 59.0 °F 50% 29.91 in 10.0 mi SSE 16.1 mph 23.0 mph N/A   Clear
5:53 PM 79.0 °F 59.0 °F 50% 29.92 in 10.0 mi SSE 15.0 mph 25.3 mph N/A   Clear
6:53 PM 78.1 °F 57.9 °F 50% 29.94 in 10.0 mi South 17.3 mph 23.0 mph N/A   Clear
7:53 PM 75.9 °F 57.9 °F 54% 29.95 in 10.0 mi South 15.0 mph - N/A   Clear
8:53 PM 73.0 °F 57.9 °F 59% 29.97 in 10.0 mi South 9.2 mph - N/A   Clear
9:53 PM 70.0 °F 57.9 °F 65% 29.99 in 10.0 mi SE 9.2 mph - N/A   Clear
10:53 PM 69.1 °F 57.9 °F 68% 30.00 in 10.0 mi SE 9.2 mph - N/A   Clear
11:53 PM 68.0 °F 55.9 °F 65% 30.01 in 10.0 mi SSE 10.4 mph - N/A   Clear